Change the Weather History Date:

Tuesday, October 8, 2013

  Actual Average (KICT) Record (KICT)
Temperature  
Mean Temperature 62 °F 61 °F  
Max Temperature 75 °F 73 °F 95 °F (1979)
Min Temperature 50 °F 50 °F 26 °F (2000)
Degree Days  
Heating Degree Days 2 6  
Month to date heating degree days 38  
Since 1 July heating degree days 81  
Cooling Degree Days 0 2  
Month to date cooling degree days 19  
Year to date cooling degree days 1668  
Growing Degree Days 12 (Base 50)    
Moisture  
Dew Point 44 °F    
Average Humidity 54    
Maximum Humidity 74    
Minimum Humidity 32    
Precipitation  
Precipitation 0.00 in 0.10 in 2.78 in (2003)
Month to date precipitation 0.83  
Year to date precipitation 28.06  
Snow  
Snow 0.00 in 0.00 in 0.00 in (2007)
Month to date snowfall 0.0  
Since 1 July snowfall 0.0  
Since 1 September snowfall 0.0  
Snow Depth -    
Sea Level Pressure  
Sea Level Pressure 30.02 in    
Wind  
Wind Speed 11 mph (SSE)    
Max Wind Speed 18 mph    
Max Gust Speed 28 mph    
Visibility 10 miles    
Events      
T = Trace of Precipitation, MM = Missing Value Source: NWS Daily Summary

Daily Weather History Graph

Daily Weather History Graph

Search for Another Location

Airport or City:

Trip Planner

Search our weather history database for the weather conditions in past years. The results will help you decide how hot, cold, wet, or windy it might be!

Date:

Astronomy

Oct. 08, 2013 Rise Set
Actual Time 7:30 AM CDT 7:01 PM CDT
Civil Twilight 7:04 AM CDT 7:27 PM CDT
Nautical Twilight 6:34 AM CDT 7:57 PM CDT
Astronomical Twilight 6:03 AM CDT 8:28 PM CDT
Moon 11:22 AM CDT (10/8) 9:43 PM CDT (10/8)
Length of Visible Light 12h 22m
Length of Day
11h 30m
Waxing Crescent, 16% of the Moon is Illuminated
Oct 8
Waxing Crescent
Oct 11
First Quarter
Oct 18
Full
Oct 26
Last Quarter
Nov 3
New

Hourly Weather History & Observations

Time (CDT) Temp. Dew Point Humidity Pressure Visibility Wind Dir Wind Speed Gust Speed Precip Events Conditions
12:54 AM 53.1 °F 41.0 °F 64% 30.07 in 10.0 mi South 6.9 mph - N/A   Clear
1:54 AM 54.0 °F 41.0 °F 62% 30.06 in 10.0 mi South 9.2 mph - N/A   Clear
2:54 AM 53.1 °F 42.1 °F 66% 30.06 in 10.0 mi SSE 8.1 mph - N/A   Clear
3:54 AM 55.0 °F 39.9 °F 57% 30.05 in 10.0 mi SSE 10.4 mph - N/A   Clear
4:54 AM 52.0 °F 41.0 °F 66% 30.06 in 10.0 mi South 10.4 mph - N/A   Clear
5:54 AM 50.0 °F 41.0 °F 71% 30.06 in 10.0 mi South 9.2 mph - N/A   Clear
6:54 AM 50.0 °F 42.1 °F 74% 30.07 in 10.0 mi South 9.2 mph - N/A   Clear
7:54 AM 51.1 °F 43.0 °F 74% 30.08 in 10.0 mi South 10.4 mph - N/A   Clear
8:54 AM 57.0 °F 44.1 °F 62% 30.08 in 10.0 mi South 12.7 mph - N/A   Clear
9:54 AM 63.0 °F 44.1 °F 50% 30.07 in 10.0 mi South 18.4 mph 27.6 mph N/A   Clear
10:54 AM 66.9 °F 45.0 °F 45% 30.07 in 10.0 mi South 18.4 mph 26.5 mph N/A   Clear
11:54 AM 70.0 °F 44.1 °F 39% 30.05 in 10.0 mi South 18.4 mph 27.6 mph N/A   Clear
12:54 PM 73.9 °F 44.1 °F 34% 30.03 in 10.0 mi South 15.0 mph 26.5 mph N/A   Clear
1:54 PM 73.9 °F 44.1 °F 34% 30.00 in 10.0 mi South 18.4 mph 25.3 mph N/A   Clear
2:54 PM 75.9 °F 45.0 °F 33% 29.98 in 10.0 mi South 16.1 mph 24.2 mph N/A   Clear
3:54 PM 75.9 °F 44.1 °F 32% 29.96 in 10.0 mi SSE 18.4 mph 27.6 mph N/A   Clear
4:54 PM 75.0 °F 44.1 °F 33% 29.96 in 10.0 mi South 17.3 mph 26.5 mph N/A   Clear
5:54 PM 72.0 °F 45.0 °F 38% 29.96 in 10.0 mi SSE 15.0 mph - N/A   Clear
6:54 PM 68.0 °F 46.9 °F 47% 29.96 in 10.0 mi SSE 11.5 mph - N/A   Clear
7:54 PM 64.9 °F 46.9 °F 52% 29.97 in 10.0 mi SSE 9.2 mph - N/A   Clear
8:54 PM 61.0 °F 48.9 °F 64% 29.97 in 10.0 mi SE 11.5 mph - N/A   Clear
9:54 PM 61.0 °F 48.9 °F 64% 29.97 in 10.0 mi SSE 12.7 mph - N/A   Clear
10:54 PM 60.1 °F 48.0 °F 64% 29.97 in 10.0 mi SSE 11.5 mph - N/A   Clear
11:54 PM 59.0 °F 48.0 °F 67% 29.96 in 10.0 mi SSE 13.8 mph - N/A   Clear